CZ-4 DEB

Satellite information

Favourite Embed

Satellite Type and Status

DEBRISIN ORBIT

Key statistics

Satellite CZ-4 DEB at a glance.

Uptime

12666

Days in orbit

Revolutions

≈ 14.3

Per day

Orbit

SSO

Sun Synchronous Orbit

Inclination

98.5

Latest

Satellite identification and parameters

Extended collection of information and parameters for CZ-4 DEB.

Object identification

Identified? True

Debris? True

Object name: CZ-4 DEB

International designator: 1990-081DB

Object number (NORAD): 37615

Object ID (CCSDS): 37615

Country: PEOPLES REPUBLIC OF CHINA (PRC)

Current information (Y/N): Y

RCS size: SMALL

Orbital parameters

Period: 100.462 minutes

Inclination: 98.5299 deg

SMA: 7158.589 km

Apoapsis: 791.503 km

Periapsis: 769.404 km

RAAN: 126.8871 deg

Eccentricy: 0.0015435

Argument of periapsis: 28.4825 deg

Mean anomaly: 331.7199 deg

Mean motion: 14.3338106 rev/day

Mean motion (dot): 0.00002715 rev/day2

B* drag term: 0.00099866 1/REarth

Two-line elements (TLE)

Creation date: May 8, 2025, 3:01 a.m.

Reference frame: TEME

Reference center: EARTH

Epoch: May 7, 2025, 10:56 a.m. UTC

TLE line 0: 0 CZ-4 DEB

TLE line 1: 1 37615U 90081DB 25127.45584909 .00002715 00000-0 99866-3 0 9997

TLE line 2: 2 37615 98.5299 126.8871 0015435 28.4825 331.7199 14.33381060566555

Live tracking on map

Real-time ground track for satellite CZ-4 DEB.

In-orbit conjunctions

A list of the most updated potential collisions computed for object CZ-4 DEB.

Target Orbit TCA Probability of collision Miss distance Type
NOAA 16 DEB SSO 2024-11-09 06:15:50 0.0002278691 954.0 (m) DEBRIS
COSMOS 1486 LEO 2024-06-20 23:50:31 0.001027099 127.0 (m) PAYLOAD

Associated space launch

Chinese polar orbiting meteorological satellite

CZ-4 DEB was lifted into orbit during the mission ‘Long March 4A | Feng Yun 1B’, on board a Long March 4A space rocket.

The launch took place on Sept. 3, 1990, 12:53 a.m. from Launch Complex 7.

For more information about the launch, click the button.

Launch to space Long March 4A | Feng Yun 1B
Long March 4A | Feng Yun 1B

Agency: N/A

Status: Launch Successful

Launch date: Sept. 3, 1990, 12:53 a.m. UTC

Rocket: Long March 4A

Launch pad: Launch Complex 7

Location: Taiyuan Satellite Launch Center, People's Republic of China

...

Latest news about this satellite

There are no fresh news available about this satellite. Check back as we update our databases every day.


Newsletter sign-up

Weekly statistics, charts and insights to help you stay on top of the space industry.